Weather in Kuzemivka

Ukraine / Luhansk Region     49°31′21″N   37°58′48″E
temp.,
°C
wind,
m/s
gust,
m/s
humid.,
%
clouds,
%
prec.,
mm/h
press.,
hPa
HPBL,
m
15 april, thu
thu1500:00+10sw3786100 0.0 1015199
03:00+8sw368821 0.0 1015130
06:00+7ssw35905 0.0 101698
09:00+11ssw586597 0.0 1016654
12:00+14s675681 0.0 10151461
15:00+15s465398 0.1 10141582
18:00+14ssw686094 0.4 1014936
21:00+10s39835 0.9 1015210
16 april, fri
fri1600:00+8s49900 0.0 1015230
03:00+7s37920 0.0 1015153
06:00+6s36945 0.0 1016127
09:00+10s46685 0.0 1017820
12:00+14s674937 0.0 10161795
15:00+11sw565993 0.1 1017925
18:00+12s345992 0.0 1017973
21:00+8s377993 0.2 1018189
17 april, sat
sat1700:00+8sw3783100 0.2 1018347
03:00+5ssw23915 0.2 101946
06:00+5wsw22943 0.0 101931
09:00+9wsw447554 0.0 1020670
12:00+12wsw555177 0.0 10201467
15:00+14wsw444116 0.0 10201925
18:00+13wsw44445 0.0 10201638
21:00+8w366944 0.0 1021135
18 april, sun
sun1800:00+7w36775 0.0 102196
03:00+6wnw34815 0.0 102167
06:00+5wnw34895 0.0 102168
09:00+11nnw466993 0.0 1020643
12:00+15n4560100 0.0 10201359
15:00+14ene6660100 0.1 10201122
18:00+14ne465557 0.0 10211498
21:00+9e5117124 0.0 1023329
19 april, mon
mon1900:00+7e411795 0.0 1024277
03:00+6e410875 0.0 1024224
06:00+5e410905 0.0 1024254
09:00+11ese71164100 0.0 1024955
12:00+15ese91149100 0.0 10231603
15:00+16ese91143100 0.0 10211834
18:00+15ese91450100 0.0 10201248
21:00+12ese101652100 0.0 10191011